This is the latest recevied weather packets stored in our database for station/object SQ8NA-15. If no packets are shown the sender has not sent any weather packets the latest 10 day(s).
| Time | Temp. | Humidity | Pressure | Rain* | Wind** | Luminosity | Snow |
|---|---|---|---|---|---|---|---|
| 1787828555 | 21.67° C | 46% | 985.1 hPa | 0 mm | - | 642 W/m² | - |
| 1787827941 | 21.67° C | 50% | 985 hPa | 0 mm | - | 744 W/m² | - |
| 1787826717 | 20.56° C | 54% | 985 hPa | 0 mm | - | 750 W/m² | - |
| 1787826104 | 21.67° C | 50% | 985.1 hPa | 0 mm | - | 709 W/m² | - |
| 1787825491 | 21.67° C | 52% | 985.1 hPa | 0 mm | - | 721 W/m² | - |
| 1787824278 | 21.11° C | 53% | 985.2 hPa | 0 mm | - | 702 W/m² | - |
| 1787823668 | 21.11° C | 55% | 985.1 hPa | 0 mm | - | 681 W/m² | - |
| 1787822442 | 20° C | 57% | 985.3 hPa | 0 mm | - | 659 W/m² | - |
| 1787821842 | 20° C | 57% | 985.3 hPa | 0 mm | - | 367 W/m² | - |
| 1787821229 | 20° C | 58% | 985.3 hPa | 0 mm | - | 617 W/m² | - |
| 1787819992 | 20° C | 58% | 985.2 hPa | 0 mm | - | 562 W/m² | - |
| 1787819378 | 20.56° C | 61% | 985.2 hPa | 0 mm | - | 534 W/m² | - |
| 1787818768 | 20° C | 61% | 985.1 hPa | 0 mm | - | 517 W/m² | - |
| 1787817528 | 19.44° C | 63% | 985.2 hPa | 0 mm | - | 471 W/m² | - |
| 1787816290 | 18.89° C | 66% | 985.2 hPa | 0 mm | - | 416 W/m² | - |
| 1787815680 | 18.89° C | 66% | 985.1 hPa | 0 mm | - | 386 W/m² | - |
| 1787815079 | 18.89° C | 71% | 985.1 hPa | 0 mm | - | 348 W/m² | - |
| 1787813855 | 18.33° C | 71% | 984.9 hPa | 0 mm | - | 291 W/m² | - |
| 1787813255 | 17.78° C | 71% | 984.9 hPa | 0 mm | - | 262 W/m² | - |
| 1787812641 | 17.22° C | 76% | 984.9 hPa | 0 mm | - | 251 W/m² | - |
| 1787811417 | 15.56° C | 76% | 984.8 hPa | 0 mm | - | 139 W/m² | - |
| 1787810817 | 15° C | 80% | 984.9 hPa | 0 mm | - | 108 W/m² | - |
| 1787810216 | 13.89° C | 81% | 984.9 hPa | 0 mm | - | 93 W/m² | - |
| 1787809005 | 12.78° C | 82% | 984.9 hPa | 0 mm | - | 75 W/m² | - |
| 1787808404 | 12.78° C | 84% | 984.8 hPa | 0 mm | - | 68 W/m² | - |
* Rain latest hour (hover to see other rain measurements)
** Current wind speed in m/s (hover to see current wind gust speed)